This demonstration page uses our WeatherBlox Daily Observations layout. Learn more.

Hourly Observations for January 6, 2020

Temp ( °F °C ) Dew Point ( °F °C ) Humidity (%) Winds ( mph kmh ) Pressure ( in mb ) Visibility ( mi km ) Precip ( " mm )
12:15 am 00:15 Partly Cloudy 26 -3.4 22 -5.4 86 86 SSE 3 6 30.35 1028 10 16.0934 0 0
12:35 am 00:35 Clear 26 -3.5 23 -5.2 88 88 SSE 5 7 30.33 1027 10 16.0934 0 0
12:55 am 00:55 Partly Cloudy 27 -3 22 -5.5 83 83 SE 3 6 30.32 1027 10 16.0934 0 0
1:15 am 01:15 Clear 26 -3.4 23 -5.1 88 88 SE 5 7 30.32 1027 10 16.0934 0 0
1:35 am 01:35 Partly Cloudy 27 -2.9 23 -5 86 86 SE 3 6 30.3 1026 10 16.0934 0 0
1:55 am 01:55 Cloudy 26 -3.1 23 -5 87 87 Calm 30.3 1026 10 16.0934 0 0
2:15 am 02:15 Cloudy 27 -2.8 23 -5 85 85 Calm 30.28 1025 10 16.0934 0 0
2:35 am 02:35 Cloudy 26 -3.4 23 -5.1 88 88 SE 5 7 30.28 1025 10 16.0934 0 0
2:55 am 02:55 Mostly Cloudy 27 -2.6 23 -4.9 84 84 SE 7 11 30.26 1025 10 16.0934 0 0
3:15 am 03:15 Partly Cloudy 27 -2.7 23 -5 84 84 SE 7 11 30.26 1025 10 16.0934 0 0
3:35 am 03:35 Mostly Cloudy 29 -1.5 25 -4 83 83 SE 7 11 30.25 1024 10 16.0934 0 0
3:55 am 03:55 Cloudy 30 -1 25 -4 80 80 SSE 6 9 30.23 1024 10 16.0934 0 0
4:15 am 04:15 Cloudy 31 -0.6 26 -3.5 81 81 S 6 9 30.23 1024 10 16.0934 0 0
4:35 am 04:35 Cloudy 31 -0.6 26 -3.5 81 81 S 7 11 30.23 1024 10 16.0934 0 0
4:55 am 04:55 Cloudy 32 -0.2 27 -3 82 82 S 7 11 30.22 1023 10 16.0934 0 0
5:15 am 05:15 Cloudy 32 -0.1 26 -3.4 79 79 S 8 13 30.22 1023 10 16.0934 0 0
5:35 am 05:35 Cloudy 32 0 25 -4 75 75 SSW 9 15 30.23 1024 10 16.0934 0 0
5:55 am 05:55 Cloudy 31 -0.4 26 -3.5 80 80 SW 8 13 30.23 1024 10 16.0934 0 0
6:15 am 06:15 Cloudy 31 -0.7 25 -3.8 80 80 SW 9 15 30.23 1024 10 16.0934 0 0
6:35 am 06:35 Cloudy 30 -1.2 25 -4 82 82 SW 12 19 30.24 1024 10 16.0934 0 0
6:55 am 06:55 Mostly Cloudy 28 -2 24 -4.5 83 83 SW 7 11 30.25 1025 10 16.0934 0 0
7:15 am 07:15 Partly Cloudy 28 -2.2 24 -4.6 84 84 SW 9 15 30.27 1025 10 16.0934 0 0
7:35 am 07:35 Clear 28 -2.2 23 -4.8 83 83 SW 8 13 30.26 1025 10 16.0934 0 0
7:55 am 07:55 Clear 27 -2.8 23 -5 85 85 SW 8 13 30.26 1025 10 16.0934 0 0
8:15 am 08:15 Sunny 27 -2.7 23 -5.1 84 84 SW 10 17 30.25 1024 10 16.0934 0 0
8:35 am 08:35 Sunny 28 -2.4 23 -5 83 83 SW 10 17 30.24 1024 10 16.0934 0 0
8:55 am 08:55 Sunny 28 -2 23 -5.1 80 80 SW 9 15 30.23 1024 10 16.0934 0 0
9:15 am 09:15 Sunny 29 -1.5 24 -4.7 79 79 SW 8 13 30.24 1024 10 16.0934 0 0
9:35 am 09:35 Sunny 30 -1 24 -4.6 77 77 SW 10 17 30.22 1024 10 16.0934 0 0
9:55 am 09:55 Sunny 31 -0.4 24 -4.7 73 73 WSW 10 17 30.2 1023 10 16.0934 0 0
10:15 am 10:15 Sunny 32 0.2 24 -4.3 72 72 WSW 9 15 30.19 1022 10 16.0934 0 0
10:35 am 10:35 Sunny 33 0.8 24 -4.2 70 70 W 13 20 30.2 1023 10 16.0934 0 0
10:55 am 10:55 Sunny 35 1.4 25 -3.7 69 69 W 15 24 30.18 1022 10 16.0934 0 0
11:15 am 11:15 Sunny 36 2.4 25 -3.7 64 64 W 15 24 30.17 1022 10 16.0934 0 0
11:35 am 11:35 Sunny 37 2.8 27 -2.9 66 66 WNW 13 20 30.16 1021 10 16.0934 0 0
11:55 am 11:55 Sunny 39 4 28 -2.5 63 63 WNW 15 24 30.15 1021 10 16.0934 0 0
12:15 pm 12:15 Sunny 41 4.9 29 -1.6 63 63 NW 13 20 30.13 1020 10 16.0934 0 0
12:35 pm 12:35 Sunny 41 5 28 -2.3 60 60 WNW 23 37 30.12 1020 10 16.0934 0 0
12:55 pm 12:55 Sunny 41 5 28 -2.4 59 59 NW 21 33 30.11 1020 10 16.0934 0 0
1:15 pm 13:15 Sunny 41 5.2 28 -2.3 59 59 NW 22 35 30.11 1020 10 16.0934 0 0
1:35 pm 13:35 Sunny 42 5.5 28 -2.1 58 58 NW 20 31 30.1 1019 10 16.0934 0 0
1:55 pm 13:55 Sunny 42 5.7 28 -2.1 58 58 WNW 20 31 30.1 1019 10 16.0934 0 0
2:15 pm 14:15 Sunny 43 6.1 28 -2.2 56 56 NW 16 26 30.11 1020 10 16.0934 0 0
2:35 pm 14:35 Sunny 44 6.5 27 -2.6 53 53 NW 16 26 30.1 1019 10 16.0934 0 0
2:55 pm 14:55 Sunny 44 6.5 28 -2.4 53 53 NW 14 22 30.1 1019 10 16.0934 0 0
3:15 pm 15:15 Sunny 44 6.6 27 -2.8 51 51 NW 15 24 30.1 1019 10 16.0934 0 0
3:35 pm 15:35 Sunny 44 6.5 28 -2.3 54 54 NW 12 19 30.11 1020 10 16.0934 0 0
3:55 pm 15:55 Sunny 43 6.3 29 -1.6 57 57 NW 8 13 30.13 1020 10 16.0934 0 0
4:15 pm 16:15 Sunny 43 6.2 28 -2.1 56 56 WNW 7 11 30.14 1021 10 16.0934 0 0
4:35 pm 16:35 Sunny 42 5.8 26 -3.2 53 53 WNW 9 15 30.14 1021 10 16.0934 0 0
4:55 pm 16:55 Sunny 41 5.2 25 -3.7 53 53 WNW 10 17 30.17 1022 10 16.0934 0 0
5:15 pm 17:15 Sunny 40 4.2 26 -3.5 58 58 WNW 9 15 30.19 1022 10 16.0934 0 0
5:35 pm 17:35 Clear 39 3.9 25 -4 57 57 WNW 9 15 30.2 1023 10 16.0934 0 0
5:55 pm 17:55 Clear 38 3.2 25 -3.7 61 61 WNW 9 15 30.2 1023 10 16.0934 0 0
6:15 pm 18:15 Clear 37 2.6 26 -3.5 64 64 WNW 7 11 30.22 1023 10 16.0934 0 0
6:35 pm 18:35 Clear 35 1.6 26 -3.3 70 70 W 9 15 30.23 1024 10 16.0934 0 0
6:55 pm 18:55 Clear 35 1.5 25 -3.7 69 69 W 8 13 30.23 1024 10 16.0934 0 0
7:15 pm 19:15 Clear 35 1.5 25 -3.7 69 69 W 8 13 30.23 1024 10 16.0934 0 0
7:35 pm 19:35 Clear 33 0.8 25 -3.9 71 71 W 9 15 30.25 1024 10 16.0934 0 0
7:55 pm 19:55 Clear 34 1.1 24 -4.5 67 67 W 12 19 30.24 1024 10 16.0934 0 0
8:15 pm 20:15 Clear 34 0.9 24 -4.6 67 67 W 10 17 30.25 1024 10 16.0934 0 0
8:35 pm 20:35 Clear 33 0.5 23 -4.9 67 67 WNW 8 13 30.25 1024 10 16.0934 0 0
8:55 pm 20:55 Clear 32 0 23 -5 69 69 W 8 13 30.26 1025 10 16.0934 0 0
9:15 pm 21:15 Clear 32 0 23 -5 69 69 W 8 13 30.26 1025 10 16.0934 0 0
9:35 pm 21:35 Clear 32 0.2 23 -5.2 67 67 WNW 8 13 30.26 1025 10 16.0934 0 0
9:55 pm 21:55 Clear 33 0.5 22 -5.4 65 65 WNW 9 15 30.26 1025 10 16.0934 0 0
10:15 pm 22:15 Clear 33 0.5 23 -5.2 66 66 WNW 8 13 30.26 1025 10 16.0934 0 0
10:35 pm 22:35 Clear 32 0.1 22 -5.3 67 67 WNW 7 11 30.26 1025 10 16.0934 0 0
10:55 pm 22:55 Clear 30 -1.2 22 -5.5 73 73 W 9 15 30.29 1026 10 16.0934 0 0
11:15 pm 23:15 Clear 30 -0.9 21 -6 69 69 W 9 15 30.29 1026 10 16.0934 0 0
11:35 pm 23:35 Clear 29 -1.5 21 -6.1 71 71 W 8 13 30.31 1026 10 16.0934 0 0
11:55 pm 23:55 Clear 29 -1.4 21 -6.2 70 70 W 7 11 30.31 1026 10 16.0934 0 0

Powered by AerisWeather